Location: Bishopstone
(51.0167°N, 1.9000°W)
Time: 13:16:38
(UTC+00:00)

Cosmos 1975 - Pass Details

Date: 16 September 2019
Orbit: 543 x 561 km, 82.5° (Epoch: 16 October)

Event Time Altitude Azimuth Distance (km) Brightness Sun altitude
Rises 19:14:24 0° 198° (SSW) 2,697 6.4 -9.2°
Reaches altitude 10° 19:16:34 10° 202° (SSW) 1,810 5.5 -9.5°
Maximum altitude 19:20:30 60° 283° (WNW) 630 3.5 -10.1°
Drops below altitude 10° 19:24:29 10° 4° (N) 1,831 5.7 -10.7°
Sets 19:26:42 0° 8° (N) 2,732 6.5 -11.0°
